DECAYED

SL-16 DEB, 22543 (Decayed)

Orbit data source: Space-Track

SL-16 DEB, 22543 was space debris in LEO originally from a launch on Fri, 25 Dec 1992 UTC launched from the Tyuratam Missile And Space Complex (TTMTR). Debris objects in space refer to the collection of defunct objects orbiting the Earth. Examples of debris include non-operational satellites, rocket bodies, and fragments generated from explosions, collisions, or faulty payload assembly.

Not visible in the next 10 days
Identifier
22543, 1992-093HD
Orbit
Decayed
Country
Flag of CISCIS
Related business
Manufacturer
Unknown
Mission
Decayed spacecraft
Bus & Motor
Unknown
Mass
Unknown
Launch date (UTC)
1992-12-25 (33 years ago)
Launch vehicle
Unknown
Launch site
Tyuratam Missile And Space Complex (TTMTR)
Object type
Payload
Rocket body
Debris
Shape & HBR
Unknown shape, 0.1 m
Radar Cross Section
Small (<0.1 m²)

Expand to show TLE details & history
Last TLE update: 9 months ago

TLE from 9 months ago
0 SL-16 DEB
1 22543U 92093HD  25234.53282934  .03381449  11354-1  13107-1 0  9991
2 22543  71.3199  69.9164 0020845 256.0343 103.8555 15.89491702681700
Epoch: 2025-08-22T12:47Z
TLE epoch observation values (Epoch: 2025-08-22T12:47:16.454Z)
Latitude
-0.00001°
Longitude
-92.98275°
Altitude
309.687 km
Speed
7.721 km/s
True Right ascension
04h 39m 39s
True Declination
0° 00' 00"
Sunlit
Object was in daylight at epoch
Visualization orbit readout
Latitude
Unknown
Longitude
Unknown
Altitude
Unknown
Speed
Unknown
Apparent Right ascension
Unknown
Apparent Declination
Unknown
Sunlit
N/A
Visualization observer readout
Local Sidereal Time
05:48:01
Azimuth
Unknown
Elevation
Unknown
Doppler factor
Unknown
Orbital elements
Apogee altitude
315.354 km
Perigee altitude
287.507 km
Semi-major axis
6,679.567 km
Eccentricity
0.00208
Inclination
71.3199°
RAAN
69.9164°
Arg. of periapsis
256.0343°
True anomaly
104.08727°
Mean anomaly
103.8555°
Eccentric anomaly
103.9714°
Mean motion
3.97576 °/min
Orbital period
90.55 mins
BSTAR
0.013107
Loading maneuver chart data...
Computing Atmospheric mass density...
Loading historical data...
Loading historical data...
Loading historical data...
Loading historical data...
Loading historical data...
Loading historical data...
Loading historical data...

Documentation

Showing up to 5 results
|